VTPO

Details ICAO VTPO (THS)
Name Sukhothai
Region Thailand
Timezone Asia/Bangkok (UTC+7.0)
Plans Departing 4
Arriving 5
Stats Elevation 179 ft / 55 m (AMSL)
Location 17.237992° 99.818182°
Runways 1
Magnetic Variation 0.714° W
Sunrise 2018-05-22 22:48:28 UTC / 2018-05-23 05:48:28 Local
Sunset 2018-05-23 11:49:18 UTC / 2018-05-23 18:49:18 Local
Advertisement - Login to hide

Runways

ID Width Length Bearing (true) Bearing (mag) Surface Threshold Offset Overrun Length
18 148 ft / 45 m 6,924 ft / 2,111 m 181.05° 181.76° Asphalt 0 ft / 0 m 823 ft / 251 m
36 148 ft / 45 m 6,924 ft / 2,111 m 1.05° 1.76° Asphalt 0 ft / 0 m 217 ft / 66 m

Approach Navaids

Runway Type Ident Frequency Range Bearing (true) Bearing (mag) Slope Elevation
36 Localiser ISKT 109.50 MHz 18 nm / 33 km 1.47° 2.19° - 176 ft / 54 m (AMSL)
36 Glidescope ISKT 109.50 MHz 10 nm / 19 km 1.05° 1.76° 3.00° 179 ft / 55 m (AMSL)
36 DME ISKT 109.50 MHz 18 nm / 33 km - - - 176 ft / 54 m (AMSL)

Map

Weather


0- 5 10 15 20 25 30 35+ Temperature / ° C

Clouds and Precipitation
Forecast for 2018-05-22 18:00 UTC. Updated 5 hours ago

Ground ~20,000 ft ~40,000 ft Winds

METAR

Not found

TAF

TAF VTPO 221700Z 2218/2318 26005KT 9999 SCT035 TEMPO 2308/2315 VRB15G25KT 5000 TSRA FEW025CB BKN030

Frequencies

Ground 127.00 MHz GND
Approach 120.70 MHz PHITSANULOK APP
Tower 118.70 MHz TWR
Warning: Do not use this data for real-world aviation or navigation. No guarantee of current accuracy is given.